Date String (YYYY-MM-DD hh:mm:ss) UTC,Instrument flags,Ambient pressure (hPa),Sample flow (lpm),Bypass flow (lpm),Sample temperature (°C),Ambient temperature (°C),ASC tube jacket temperature (°C),LED temperature (°C),Box temperature (°C),Sample RH (%),Span deviation,Mass concentration (μg/m³),Mass concentration (μg/m³),Mass concentration (μg/m³)
DateTimeUTC,F1_M11,P_M11,Q1_M11,Q2_M11,T1_M11,T2_M11,T3_M11,T4_M11,T5_M11,U1_M11,ZSPAN_M11,X0_M11,X2_M11,X1_M11
2022-08-06 23:00:00,,0827.7,5.01,0.00,33.1,28.5,00.0,40.5,32.8,33.9,0000.0,0012.46,0006.99,0005.93
2022-08-06 23:01:00,,0827.7,4.99,0.00,33.2,28.2,00.0,40.5,32.7,32.9,0000.0,0012.26,0006.96,0005.90
2022-08-06 23:02:00,,0827.7,5.00,0.00,33.1,27.6,00.0,40.5,32.5,31.4,0000.0,0012.08,0006.91,0005.84
2022-08-06 23:03:00,,0827.7,5.00,0.00,33.0,27.4,00.0,40.5,32.4,30.9,0000.0,0012.02,0006.88,0005.80
2022-08-06 23:04:00,,0827.8,5.00,0.00,32.9,27.4,00.0,40.5,32.3,31.4,0000.0,0012.25,0006.79,0005.77
2022-08-06 23:05:00,,0827.9,4.99,0.00,32.7,27.6,00.0,40.5,32.3,31.6,0000.0,0012.17,0006.73,0005.72
2022-08-06 23:06:00,,0827.9,5.01,0.00,32.6,27.7,00.0,40.5,32.3,32.5,0000.0,0012.15,0006.71,0005.69
2022-08-06 23:07:00,,0828.0,5.01,0.00,32.5,27.9,00.0,40.5,32.4,34.7,0000.0,0011.97,0006.67,0005.66
2022-08-06 23:08:00,,0828.0,4.99,0.00,32.5,28.1,00.0,40.5,32.5,34.3,0000.0,0011.77,0006.61,0005.61
2022-08-06 23:09:00,,0828.0,4.99,0.00,32.5,28.3,00.0,40.5,32.6,34.3,0000.0,0011.41,0006.46,0005.51
2022-08-06 23:10:00,,0827.9,5.01,0.00,32.6,28.5,00.0,40.5,32.7,36.8,0000.0,0011.34,0006.45,0005.45
2022-08-06 23:11:00,,0828.0,5.00,0.00,32.8,28.5,00.0,40.5,32.8,34.2,0000.0,0011.82,0006.43,0005.43
2022-08-06 23:12:00,,0827.9,5.00,0.00,33.0,28.0,00.0,40.5,32.7,34.3,0000.0,0012.17,0006.39,0005.39
2022-08-06 23:13:00,,0827.9,5.00,0.00,33.0,27.5,00.0,40.5,32.5,33.9,0000.0,0012.70,0006.53,0005.41
2022-08-06 23:14:00,,0827.8,5.01,0.00,32.9,27.3,00.0,40.5,32.4,34.8,0000.0,0014.11,0006.76,0005.43
2022-08-06 23:15:00,,0827.7,5.00,0.00,32.8,27.4,00.0,40.5,32.4,35.7,0000.0,0016.17,0007.17,0005.44
2022-08-06 23:16:00,,0827.7,5.01,0.00,33.0,27.6,00.0,40.5,32.6,35.4,0000.0,0019.66,0007.65,0005.44
2022-08-06 23:17:00,,0827.8,4.99,0.00,33.2,27.7,00.0,40.5,32.7,35.0,0000.7,0022.69,0008.12,0005.43
2022-08-06 23:18:00,,0827.9,5.00,0.00,33.5,27.9,00.0,40.5,32.9,33.9,0000.0,0025.78,0008.48,0005.39
2022-08-06 23:19:00,,0827.9,5.00,0.00,33.6,28.1,00.0,40.6,32.9,33.6,0000.8,0028.15,0008.87,0005.37
2022-08-06 23:20:00,,0828.0,5.00,0.00,33.6,28.3,00.0,40.6,32.8,33.4,0001.9,0030.38,0009.31,0005.40
2022-08-06 23:21:00,,0828.0,5.00,0.00,33.5,28.5,00.0,40.7,32.9,33.4,0003.3,0032.67,0009.59,0005.38
2022-08-06 23:22:00,,0828.1,5.01,0.00,33.5,28.4,00.0,40.8,32.8,33.3,0000.3,0033.41,0009.73,0005.33
2022-08-06 23:23:00,,0828.2,4.99,0.00,33.4,27.7,00.0,40.8,32.6,33.1,0000.0,0033.49,0009.89,0005.30
2022-08-06 23:24:00,,0828.2,4.99,0.00,33.3,27.3,00.0,40.8,32.5,33.8,0000.0,0034.11,0009.90,0005.22
2022-08-06 23:25:00,,0828.3,5.01,0.00,33.1,27.3,00.0,40.8,32.4,35.2,0000.0,0034.04,0009.92,0005.15
2022-08-06 23:26:00,,0828.2,5.00,0.00,33.0,27.4,00.0,40.7,32.4,36.1,0000.0,0034.90,0009.94,0005.10
2022-08-06 23:27:00,,0828.1,5.00,0.00,33.2,27.5,00.0,40.7,32.6,35.9,0000.0,0035.21,0009.93,0005.06
2022-08-06 23:28:00,,0828.1,5.00,0.00,33.4,27.7,00.0,40.7,32.8,35.5,0000.0,0035.41,0009.89,0005.01
2022-08-06 23:29:00,,0828.2,4.98,0.00,33.7,27.9,00.0,40.7,33.0,34.8,0000.0,0034.59,0009.82,0004.97
2022-08-06 23:30:00,,0828.2,5.01,0.00,33.9,28.1,00.0,40.7,33.0,33.5,0000.0,0033.86,0009.59,0004.90
2022-08-06 23:31:00,,0828.2,5.00,0.00,34.0,28.2,00.0,40.8,33.0,32.6,0000.0,0032.63,0009.31,0004.82
2022-08-06 23:32:00,,0828.2,4.99,0.00,33.9,28.4,00.0,40.9,33.0,32.3,0000.0,0030.40,0009.02,0004.73
2022-08-06 23:33:00,,0828.2,5.00,0.00,33.9,28.5,00.0,41.0,32.9,32.6,0000.0,0029.43,0008.80,0004.64
2022-08-06 23:34:00,,0828.2,4.99,0.00,33.8,28.6,00.0,41.0,32.9,32.1,0000.0,0029.04,0008.60,0004.57
2022-08-06 23:35:00,,0828.3,5.01,0.00,33.8,28.4,00.0,41.1,32.8,32.2,0000.0,0028.31,0008.30,0004.49
2022-08-06 23:36:00,,0828.2,5.00,0.00,33.6,27.7,00.0,41.1,32.6,32.4,0000.0,0027.15,0007.91,0004.38
2022-08-06 23:37:00,,0828.3,5.00,0.00,33.5,27.3,00.0,41.1,32.5,32.7,0000.0,0023.77,0007.37,0004.26
2022-08-06 23:38:00,,0828.2,5.01,0.00,33.3,27.3,00.0,41.0,32.4,33.6,0000.0,0020.45,0006.83,0004.16
2022-08-06 23:39:00,,0828.1,4.99,0.00,33.1,27.4,00.0,41.0,32.4,33.8,0000.0,0017.35,0006.27,0004.06
2022-08-06 23:40:00,,0828.1,5.01,0.00,32.9,27.6,00.0,40.9,32.4,33.8,0000.0,0015.11,0005.81,0003.97
2022-08-06 23:41:00,,0828.0,5.00,0.00,32.8,27.7,00.0,40.9,32.4,34.3,0000.0,0013.49,0005.52,0003.91
2022-08-06 23:42:00,,0827.9,4.99,0.00,32.7,27.9,00.0,40.9,32.5,34.7,0000.0,0012.54,0005.30,0003.87
2022-08-06 23:43:00,,0827.9,5.01,0.00,32.6,28.1,00.0,40.8,32.5,35.0,0000.0,0012.37,0005.13,0003.83
2022-08-06 23:44:00,,0827.9,4.99,0.00,32.6,28.2,00.0,40.8,32.6,34.4,0000.0,0012.00,0005.01,0003.78
2022-08-06 23:45:00,,0827.8,5.00,0.00,32.7,28.4,00.0,40.7,32.7,33.4,0000.0,0011.43,0004.85,0003.73
2022-08-06 23:46:00,,0827.9,5.00,0.00,32.7,28.5,00.0,40.7,32.7,34.3,0000.0,0011.16,0004.78,0003.69
2022-08-06 23:47:00,,0827.9,5.00,0.00,32.6,28.6,00.0,40.7,32.7,34.3,0000.0,0010.79,0004.72,0003.67
2022-08-06 23:48:00,,0828.0,4.99,0.00,32.6,28.7,00.0,40.7,32.7,34.3,0000.0,0010.39,0004.66,0003.65
2022-08-06 23:49:00,,0828.0,5.01,0.00,32.5,28.3,00.0,40.6,32.5,34.3,0000.0,0010.08,0004.63,0003.64
2022-08-06 23:50:00,,0828.0,5.00,0.00,32.4,27.7,00.0,40.6,32.3,34.5,0000.0,0010.45,0004.69,0003.66
2022-08-06 23:51:00,,0828.0,5.01,0.00,32.3,27.4,00.0,40.5,32.3,34.9,0000.0,0010.57,0004.71,0003.65
2022-08-06 23:52:00,,0827.9,5.00,0.00,32.2,27.3,00.0,40.5,32.2,35.2,0000.0,0010.77,0004.73,0003.66
2022-08-06 23:53:00,,0827.9,5.00,0.00,32.3,27.4,00.0,40.4,32.3,35.3,0000.0,0010.91,0004.78,0003.66
2022-08-06 23:54:00,,0827.9,4.99,0.00,32.6,27.6,00.0,40.3,32.5,34.8,0000.0,0010.78,0004.83,0003.65
2022-08-06 23:55:00,,0827.8,5.01,0.00,32.8,27.8,00.0,40.3,32.6,34.3,0000.0,0011.19,0004.91,0003.66
2022-08-06 23:56:00,,0827.7,5.00,0.00,32.8,27.9,00.0,40.3,32.6,34.3,0000.0,0011.84,0005.00,0003.69
2022-08-06 23:57:00,,0827.7,5.00,0.00,32.8,28.1,00.0,40.4,32.6,33.8,0000.0,0011.63,0005.06,0003.73
2022-08-06 23:58:00,,0827.7,5.01,0.00,32.8,28.2,00.0,40.4,32.6,34.2,0000.0,0011.78,0005.15,0003.77
2022-08-06 23:59:00,,0827.7,4.99,0.00,32.8,28.4,00.0,40.4,32.6,34.1,0000.0,0011.91,0005.23,0003.80
